Regional Weather Roundup
Issued by NWS

Home | Current Version | Previous Version | Graphics & Text | Print | Product List | Glossary On
Versions: 1 2 3 4 5 6 7 8 9 10 11 12 13 14 15 16 17 18 19 20 21 22 23 24 25 26 27 28 29 30 31 32 33 34 35 36 37 38 39 40 41 42 43 44 45 46 47 48 49 50
000
ASUS45 KSLC 210610
RWRUT

UTAH REGIONAL WEATHER ROUNDUP
NATIONAL WEATHER SERVICE SALT LAKE CITY UT
1200 AM MDT TUE OCT 21 2014

UTZ001>011-023>025-210700-

NORTHERN UTAH

CITY           SKY/WX    TMP DP  RH WIND       PRES   REMARKS
BRIGHAM CITY   CLEAR     51  41  68 CALM      29.89F
HILL AFB       CLEAR     60  37  42 SE9       29.92S
LOGAN          CLEAR     46  37  71 NE6       29.90S
OGDEN          CLEAR     62  36  37 S13       29.89S
PROVO AIRPORT  CLOUDY    63  39  42 S15       29.94F
SALT LAKE CITY PTCLDY    62  41  46 SE12      29.90S
VERNAL         MOCLDY    51  38  60 W6        30.05F
WENDOVER       MOCLDY    54  37  54 E5        29.85F
HEBER CITY     CLOUDY    54  36  50 CALM      30.02S
WEST JORDAN    CLEAR     59  46  63 S12       29.93F

$$

UTZ012>022-026-027-210700-

SOUTHERN/CENTRAL UTAH

CITY           SKY/WX    TMP DP  RH WIND       PRES   REMARKS
BLANDING       PTCLDY    54  40  58 NE7       30.19S
BRYCE CANYON   CLEAR     34  30  85 SW3       30.18F
CEDAR CITY     CLEAR     53  37  54 SW6       30.03S
DELTA          PTCLDY    59  38  45 S13       29.96S
HANKSVILLE       N/A     52  36  54 CALM      30.03S
MILFORD        CLEAR     56  37  49 SW12      29.99S
MOAB/CYNLANDS  PTCLDY    55  37  50 CALM      30.00F
PRICE          PTCLDY    51  36  56 NE9       30.08F
ST GEORGE      CLOUDY    70  37  30 SE9       29.92S

$$

REGIONAL REPORTS     COLORADO/ARIZONA

CITY           SKY/WX    TMP DP  RH WIND       PRES   REMARKS
CRAIG, CO      CLEAR     36  32  85 SE3       30.12F
GRAND JUNCTION CLOUDY    58  39  49 E7        30.04F
RIFLE          PTCLDY    46  38  73 E6        30.10S
MONTROSE       CLOUDY    53  39  59 SE8       30.13F
CORTEZ         MOCLDY    49  39  68 NE5       30.14S
PAGE, AZ       NOT AVBL
GRAND CANYON   CLEAR     38  31  76 CALM      30.16S
KINGMAN        CLEAR     65  44  46 S10       29.97S
FLAGSTAFF      CLEAR     40  36  86 CALM      30.18F

$$

REGIONAL REPORTS    NEVADA/IDAHO/WYOMING

CITY           SKY/WX    TMP DP  RH WIND       PRES   REMARKS
LAS VEGAS, NV  PTCLDY    78  42  27 S12       29.81F
ELY            MOCLDY    55  34  45 S14       29.99F
ELKO           PTCLDY    59  27  29 SW7       29.83R
POCATELLO, ID  PTCLDY    58  36  43 W5        29.83F
BURLEY         CLOUDY    66  35  31 S13       29.77F
EVANSTON, WY   PTCLDY    48  33  56 S5        30.07F
ROCK SPRINGS   CLEAR     52  33  48 SW10      30.07F
KEMMERER       MOCLDY    45  32  61 N7        30.09F

$$


USA.gov is the U.S. government's official web portal to all federal, state and local government web resources and services.